Location: Kirchberg
(47.4114°N, 9.0398°E)
Time: 00:03:36
(UTC+00:00)

ERS-2 - Pass Details

Date: 03 March 2021
Orbit: 492 x 496 km, 98.6° (Epoch: 20 April)

Event Time Altitude Azimuth Distance (km) Brightness Sun altitude
Rises 18:21:18 0° 14° (NNE) 2,596 5.7 -12.5°
Reaches altitude 10° 18:23:23 10° 14° (NNE) 1,708 4.7 -12.9°
Maximum altitude 18:27:04 90° 27° (NNE) 504 2.1 -13.5°
Drops below altitude 10° 18:30:43 10° 196° (SSW) 1,695 4.9 -14.1°
Sets 18:32:47 0° 196° (SSW) 2,573 5.9 -14.4°
